2022-096L (53380 NORAD) Tracking and Keplerian Element Data

This shows tracking and keplerian element data for the satellite.

Feedback or suggestion? Click here.




ElementValue
Catalog53380
Name2022-096L
Epoch Orbit1585
Epoch Day325.27959434
Epoch Year2022
RAAN226.0913
Inclination97.4274
Eccentricity0.0005917
Argument of Perigee81.1565
Mean Anonmoly35.9349
Mean Motion15.26681265
Decay Rate7.287E-05
L11 53380U 22096L 22325.27959434 .00007287 00000+0 28030-3 0 9994
L22 53380 97.4274 226.0913 0005917 81.1565 35.9349 15.26681265 15859



Live tracking and technical data element details for 2022-096L (NORAD 53380). 2022-096L can be tracked NOW for your location showing map with azimuth and elevation plus other details from your city location.







IsCatalogInMostPopularTable: catalog: 53380, numindb: 5
Update: records affected: 1



GetName: 53380 2022-096L

Hit Count: updated at: Tue, 29 Nov 2022 01:46:10 GMT